Вернуться в каталог

COSMOS 400

АктивенВоенныеLEO
NORAD 5050·PAYLOAD·🇷🇺 Russia

Запущен Mar 18, 1971 с Plesetsk Cosmodrome

Loading…

Ближайшие Пролёты

TLE

Source: Space-Track
1 05050U 71020A   26229.78477899 -.00000092  00000-0 -13196-4 0  9997
2 05050  65.8249  41.0724 0004714 239.1727 133.7230 13.72206330776401

Отслеживайте COSMOS 400 в реальном времени с AllMySat

Download on the App Store